Retour au catalogue

STARLINK-35640

ActifCommunicationsVLEO
NORAD 66536·PAYLOAD·🇺🇸 United States

Lancé Nov 19, 2025 depuis Cape Canaveral Space Force Station

Loading…

Prochains Passages (prochaines 24 heures)

TLE

FraisSource: CelesTrak SupGP

Époque: Sep 15, 2026, 03:48 UTC

1 66536C 25265W   26258.15881944 -.00010102  00000+0 -36584-3 0  2581
2 66536  43.0006 288.0394 0001260 264.5403 281.0877 15.27588469    17

Suivez STARLINK-35640 en temps réel avec AllMySat

Download on the App Store